Date String (YYYY-MM-DD hh:mm:ss) UTC,Instrument flags,Ambient pressure (hPa),Sample flow (lpm),Bypass flow (lpm),Sample temperature (°C),Ambient temperature (°C),ASC tube jacket temperature (°C),LED temperature (°C),Box temperature (°C),Sample RH (%),Span deviation,Mass concentration (μg/m³),Mass concentration (μg/m³),Mass concentration (μg/m³)
DateTimeUTC,F1_M11,P_M11,Q1_M11,Q2_M11,T1_M11,T2_M11,T3_M11,T4_M11,T5_M11,U1_M11,ZSPAN_M11,X0_M11,X2_M11,X1_M11
2022-12-23 07:00:00,,0830.5,5.01,0.00,21.4,21.4,00.0,30.1,23.1,02.4,0002.8,0007.76,0004.55,0004.14
2022-12-23 07:01:00,,0830.5,5.00,0.00,21.5,21.7,00.0,30.1,23.2,02.3,0002.8,0007.76,0004.56,0004.16
2022-12-23 07:02:00,,0830.4,4.99,0.00,21.6,21.8,00.0,30.1,23.2,02.3,0002.8,0007.78,0004.57,0004.17
2022-12-23 07:03:00,,0830.4,4.98,0.00,21.7,21.9,00.0,30.1,23.3,02.3,0002.5,0007.82,0004.59,0004.18
2022-12-23 07:04:00,,0830.4,5.02,0.00,21.7,22.0,00.0,30.2,23.4,02.3,0002.5,0007.76,0004.60,0004.20
2022-12-23 07:05:00,,0830.3,4.98,0.00,21.8,22.1,00.0,30.2,23.5,02.3,0002.7,0008.07,0004.65,0004.22
2022-12-23 07:06:00,,0830.1,5.01,0.00,21.9,22.2,00.0,30.2,23.6,02.3,0002.9,0008.20,0004.73,0004.28
2022-12-23 07:07:00,,0830.3,5.01,0.00,21.9,22.3,00.0,30.3,23.6,02.3,0003.0,0008.23,0004.76,0004.32
2022-12-23 07:08:00,,0830.2,5.00,0.00,22.0,22.3,00.0,30.3,23.7,02.3,0003.6,0008.26,0004.79,0004.37
2022-12-23 07:09:00,,0830.2,5.03,0.00,21.9,21.1,00.0,30.4,23.3,02.4,0003.7,0008.47,0004.83,0004.42
2022-12-23 07:10:00,,0830.2,4.98,0.00,21.7,19.7,00.0,30.4,22.7,02.4,0003.5,0008.89,0004.88,0004.48
2022-12-23 07:11:00,,0830.2,4.98,0.00,21.5,19.2,00.0,30.4,22.5,02.4,0003.4,0008.87,0004.92,0004.53
2022-12-23 07:12:00,,0830.4,5.02,0.00,21.5,20.1,00.0,30.3,22.8,02.4,0003.5,0009.34,0004.97,0004.57
2022-12-23 07:13:00,,0830.4,5.03,0.00,21.6,20.8,00.0,30.3,23.0,02.4,0003.4,0009.67,0005.01,0004.62
2022-12-23 07:14:00,,0830.3,4.96,0.00,21.6,21.3,00.0,30.3,23.2,02.4,0003.4,0009.72,0005.06,0004.67
2022-12-23 07:15:00,,0830.3,5.04,0.00,21.7,21.7,00.0,30.3,23.3,02.4,0002.7,0009.83,0005.09,0004.69
2022-12-23 07:16:00,,0830.4,4.96,0.00,21.8,21.9,00.0,30.3,23.4,02.4,0003.2,0009.66,0005.11,0004.72
2022-12-23 07:17:00,,0830.4,5.04,0.00,21.8,22.1,00.0,30.3,23.5,02.4,0002.8,0009.60,0005.10,0004.74
2022-12-23 07:18:00,,0830.4,4.97,0.00,21.9,22.3,00.0,30.4,23.6,02.4,0002.1,0009.62,0005.11,0004.74
2022-12-23 07:19:00,,0830.4,5.03,0.00,22.0,22.1,00.0,30.4,23.6,02.3,0001.4,0009.60,0005.11,0004.74
2022-12-23 07:20:00,,0830.4,4.97,0.00,21.8,20.7,00.0,30.5,23.2,02.4,0001.0,0009.50,0005.11,0004.73
2022-12-23 07:21:00,,0830.3,4.98,0.00,21.6,19.4,00.0,30.5,22.7,02.4,0001.1,0009.12,0005.11,0004.71
2022-12-23 07:22:00,,0830.4,5.02,0.00,21.4,19.2,00.0,30.4,22.5,02.4,0001.6,0009.30,0005.12,0004.70
2022-12-23 07:23:00,,0830.4,5.03,0.00,21.5,20.1,00.0,30.3,22.7,02.4,0001.9,0008.87,0005.12,0004.69
2022-12-23 07:24:00,,0830.3,4.95,0.00,21.5,20.8,00.0,30.3,23.0,02.4,0002.0,0008.57,0005.12,0004.67
2022-12-23 07:25:00,,0830.2,5.04,0.00,21.6,21.3,00.0,30.3,23.1,02.4,0001.9,0008.48,0005.06,0004.64
2022-12-23 07:26:00,,0830.2,4.96,0.00,21.7,21.7,00.0,30.3,23.3,02.4,0002.2,0008.60,0005.04,0004.62
2022-12-23 07:27:00,,0830.3,5.06,0.00,21.7,22.0,00.0,30.3,23.4,02.4,0001.7,0008.78,0005.05,0004.60
2022-12-23 07:28:00,,0830.3,4.96,0.00,21.8,22.3,00.0,30.3,23.5,02.4,0001.8,0008.75,0005.01,0004.57
2022-12-23 07:29:00,,0830.2,5.04,0.00,21.8,21.4,00.0,30.4,23.3,02.4,0002.4,0008.73,0004.99,0004.56
2022-12-23 07:30:00,,0830.1,5.00,0.00,21.6,19.9,00.0,30.4,22.7,02.4,0003.0,0008.73,0004.99,0004.54
2022-12-23 07:31:00,,0830.1,4.98,0.00,21.3,18.8,00.0,30.4,22.2,02.4,0003.0,0008.79,0005.00,0004.54
2022-12-23 07:32:00,,0830.1,5.00,0.00,21.3,19.5,00.0,30.3,22.4,02.5,0002.6,0008.67,0004.97,0004.53
2022-12-23 07:33:00,,0830.2,5.03,0.00,21.3,20.4,00.0,30.2,22.7,02.5,0001.9,0008.48,0004.94,0004.52
2022-12-23 07:34:00,,0830.1,4.96,0.00,21.4,21.0,00.0,30.2,22.9,02.5,0000.9,0008.51,0004.92,0004.51
2022-12-23 07:35:00,,0830.1,5.02,0.00,21.5,21.6,00.0,30.2,23.1,02.5,0000.8,0008.57,0004.88,0004.50
2022-12-23 07:36:00,,0830.1,4.97,0.00,21.6,22.0,00.0,30.2,23.3,02.4,0001.3,0008.57,0004.88,0004.49
2022-12-23 07:37:00,,0830.1,5.03,0.00,21.7,22.2,00.0,30.2,23.4,02.4,0000.9,0008.33,0004.83,0004.46
2022-12-23 07:38:00,,0830.1,4.97,0.00,21.8,22.2,00.0,30.2,23.5,02.4,0001.1,0008.03,0004.77,0004.43
2022-12-23 07:39:00,,0830.1,5.04,0.00,21.8,22.2,00.0,30.3,23.5,02.4,0001.2,0007.94,0004.73,0004.40
2022-12-23 07:40:00,,0830.0,4.96,0.00,21.9,22.2,00.0,30.3,23.6,02.3,0001.0,0007.88,0004.69,0004.35
2022-12-23 07:41:00,,0830.0,5.03,0.00,22.0,22.3,00.0,30.4,23.7,02.3,0000.5,0007.79,0004.65,0004.32
2022-12-23 07:42:00,,0830.1,4.95,0.00,22.0,22.0,00.0,30.4,23.5,02.3,0000.7,0007.91,0004.61,0004.28
2022-12-23 07:43:00,,0830.1,5.02,0.00,21.8,20.4,00.0,30.5,23.0,02.4,0001.2,0008.01,0004.59,0004.25
2022-12-23 07:44:00,,0830.0,5.02,0.00,21.5,19.0,00.0,30.5,22.4,02.4,0001.1,0008.09,0004.59,0004.23
2022-12-23 07:45:00,,0829.9,5.02,0.00,21.4,19.1,00.0,30.4,22.4,02.4,0001.3,0008.05,0004.56,0004.17
2022-12-23 07:46:00,,0829.8,4.98,0.00,21.4,20.2,00.0,30.3,22.7,02.4,0001.5,0007.87,0004.52,0004.13
2022-12-23 07:47:00,,0829.9,4.98,0.00,21.5,21.0,00.0,30.3,22.9,02.4,0001.1,0007.85,0004.49,0004.11
2022-12-23 07:48:00,,0829.8,5.02,0.00,21.6,21.5,00.0,30.3,23.1,02.4,0001.4,0008.58,0004.49,0004.10
2022-12-23 07:49:00,,0829.9,4.97,0.00,21.6,22.0,00.0,30.3,23.3,02.4,0001.2,0008.84,0004.48,0004.08
2022-12-23 07:50:00,,0829.9,5.04,0.00,21.7,22.0,00.0,30.4,23.3,02.3,0001.2,0008.83,0004.46,0004.06
2022-12-23 07:51:00,,0830.0,4.95,0.00,21.6,21.0,00.0,30.4,23.0,02.4,0001.8,0009.16,0004.48,0004.06
2022-12-23 07:52:00,,0829.9,5.02,0.00,21.5,19.9,00.0,30.4,22.7,02.4,0002.0,0009.36,0004.45,0004.04
2022-12-23 07:53:00,,0829.9,5.02,0.00,21.3,19.3,00.0,30.4,22.5,02.4,0001.7,0009.12,0004.40,0004.01
2022-12-23 07:54:00,,0830.0,5.00,0.00,21.3,20.1,00.0,30.3,22.7,02.4,0000.0,0008.96,0004.37,0003.99
2022-12-23 07:55:00,,0830.1,4.97,0.00,21.4,21.0,00.0,30.2,22.9,02.4,0000.0,0008.82,0004.32,0003.97
2022-12-23 07:56:00,,0830.1,5.04,0.00,21.5,21.6,00.0,30.2,23.1,02.4,0000.0,0008.82,0004.32,0003.97
2022-12-23 07:57:00,,0830.0,4.97,0.00,21.6,22.0,00.0,30.3,23.3,02.4,0000.0,0008.87,0004.33,0003.97
2022-12-23 07:58:00,,0829.9,5.03,0.00,21.6,21.4,00.0,30.3,23.2,02.4,0000.0,0008.95,0004.36,0003.96
2022-12-23 07:59:00,,0829.9,4.94,0.00,21.5,20.4,00.0,30.3,22.9,02.4,0000.0,0008.17,0004.35,0003.96
